Weather History for Crosby, ND

Change the Weather History Date:

Saturday, March 1, 2014

  Actual Average (KISN) Record (KISN)
Temperature  
Mean Temperature -20 °F 22 °F  
Max Temperature -13 °F 33 °F 67 °F (1992)
Min Temperature -27 °F 12 °F -28 °F (2003)
Degree Days  
Heating Degree Days 85 43  
Month to date heating degree days 43  
Since 1 July heating degree days 6811  
Cooling Degree Days 0 0  
Month to date cooling degree days 0  
Year to date cooling degree days 0  
Moisture  
Dew Point -28 °F    
Average Humidity 67    
Maximum Humidity 76    
Minimum Humidity 53    
Precipitation  
Precipitation 0.00 in 0.02 in 0.26 in (1976)
Month to date precipitation 0.02  
Year to date precipitation 1.00  
Sea Level Pressure  
Sea Level Pressure 30.50 in    
Wind  
Wind Speed 12 mph (NW)    
Max Wind Speed 17 mph    
Max Gust Speed 23 mph    
Visibility 10 miles    
Events      
T = Trace of Precipitation, MM = Missing Value Source: NWS Daily Summary

Daily Weather History Graph

Daily Weather History Graph

Search for Another Location

Airport:

Trip Planner

Search our weather history database for the weather conditions in past years. The results will help you decide how hot, cold, wet, or windy it might be!

Date:

Astronomy

Mar. 01, 2014 Rise Set
Actual Time 7:35 AM CST 6:36 PM CST
Civil Twilight 7:03 AM CST 7:08 PM CST
Nautical Twilight 6:26 AM CST 7:45 PM CST
Astronomical Twilight 5:50 AM CST 8:21 PM CST
Moon 7:25 AM CST (3/1) 7:34 PM CST (3/1)
Length of Visible Light 12h 05m
Length of Day
11h 01m
New Moon, 0% of the Moon is Illuminated
Mar 1
New Moon
Mar 8
First Quarter
Mar 16
Full
Mar 23
Last Quarter
Mar 30
New

Hourly Weather History & Observations

Time (CST) Temp. Windchill Dew Point Humidity Pressure Visibility Wind Dir Wind Speed Gust Speed Precip Events Conditions
12:15 AM -18.4 °F -40.2 °F -25.6 °F 70% 30.40 in 7.0 mi NW 11.5 mph - N/A   Unknown
12:35 AM -20.2 °F -38.8 °F -25.6 °F 76% 30.40 in 10.0 mi WNW 8.1 mph - N/A   Unknown
12:55 AM -20.2 °F -41.3 °F -25.6 °F 76% 30.41 in 10.0 mi NW 10.4 mph - N/A   Unknown
1:15 AM -20.2 °F -43.4 °F -25.6 °F 76% 30.41 in 10.0 mi NW 12.7 mph 16.1 mph N/A   Unknown
1:35 AM -20.2 °F -44.4 °F -27.4 °F 69% 30.42 in 10.0 mi NW 13.8 mph - N/A   Unknown
1:55 AM -20.2 °F -44.4 °F -27.4 °F 69% 30.42 in 10.0 mi NW 13.8 mph - N/A   Unknown
2:15 AM -22.0 °F -45.7 °F -27.4 °F 76% 30.43 in 10.0 mi NW 12.7 mph - N/A   Unknown
2:35 AM -22.0 °F -45.7 °F -29.2 °F 69% 30.43 in 10.0 mi NW 12.7 mph - N/A   Unknown
2:55 AM -22.0 °F -47.5 °F -29.2 °F 69% 30.44 in 10.0 mi NW 15.0 mph - N/A   Unknown
3:15 AM -22.0 °F -46.6 °F -29.2 °F 69% 30.44 in 10.0 mi NW 13.8 mph - N/A   Unknown
3:35 AM -23.8 °F -48.0 °F -29.2 °F 76% 30.45 in 10.0 mi NW 12.7 mph - N/A   Unknown
3:55 AM -23.8 °F -48.0 °F -31.0 °F 69% 30.45 in 10.0 mi NW 12.7 mph - N/A   Unknown
4:15 AM -25.6 °F -48.0 °F -31.0 °F 76% 30.46 in 10.0 mi NW 10.4 mph - N/A   Unknown
4:35 AM -25.6 °F -48.0 °F -31.0 °F 76% 30.46 in 10.0 mi NW 10.4 mph - N/A   Unknown
4:55 AM -25.6 °F -48.0 °F -31.0 °F 76% 30.46 in 10.0 mi NW 10.4 mph - N/A   Unknown
5:15 AM -25.6 °F -48.0 °F -32.8 °F 69% 30.46 in 10.0 mi NW 10.4 mph - N/A   Unknown
5:35 AM -25.6 °F -50.2 °F -32.8 °F 69% 30.46 in 10.0 mi NW 12.7 mph - N/A   Unknown
5:55 AM -27.4 °F -47.6 °F -32.8 °F 75% 30.48 in 10.0 mi WNW 8.1 mph - N/A   Unknown
6:15 AM -27.4 °F -47.6 °F -32.8 °F 75% 30.50 in 10.0 mi WNW 8.1 mph - N/A   Unknown
6:35 AM -27.4 °F -50.3 °F -32.8 °F 75% 30.50 in 10.0 mi WNW 10.4 mph - N/A   Unknown
6:55 AM -25.6 °F -48.0 °F -32.8 °F 69% 30.52 in 10.0 mi WNW 10.4 mph - N/A   Unknown
7:15 AM -25.6 °F -49.2 °F -32.8 °F 69% 30.52 in 10.0 mi WNW 11.5 mph - N/A   Unknown
7:35 AM -27.4 °F -50.3 °F -32.8 °F 75% 30.52 in 10.0 mi WNW 10.4 mph - N/A   Unknown
7:55 AM -27.4 °F -51.4 °F -32.8 °F 75% 30.52 in 10.0 mi WNW 11.5 mph - N/A   Unknown
8:15 AM -25.6 °F -50.2 °F -32.8 °F 69% 30.52 in 10.0 mi WNW 12.7 mph - N/A   Unknown
8:35 AM -25.6 °F -52.1 °F -31.0 °F 76% 30.51 in 10.0 mi NW 15.0 mph - N/A   Unknown
8:55 AM -25.6 °F -51.2 °F -31.0 °F 76% 30.52 in 10.0 mi NW 13.8 mph - N/A   Unknown
9:15 AM -23.8 °F -49.8 °F -31.0 °F 69% 30.53 in 10.0 mi NW 15.0 mph - N/A   Unknown
9:35 AM -22.0 °F -45.7 °F -31.0 °F 63% 30.54 in 10.0 mi NW 12.7 mph - N/A   Unknown
9:55 AM -22.0 °F -46.6 °F -31.0 °F 63% 30.54 in 10.0 mi NW 13.8 mph 19.6 mph N/A   Unknown
10:15 AM -22.0 °F -46.6 °F -31.0 °F 63% 30.55 in 10.0 mi NW 13.8 mph - N/A   Unknown
10:35 AM -20.2 °F -45.2 °F -29.2 °F 63% 30.55 in 10.0 mi NW 15.0 mph - N/A   Unknown
10:55 AM -20.2 °F -45.2 °F -29.2 °F 63% 30.56 in 10.0 mi NW 15.0 mph 20.7 mph N/A   Unknown
11:15 AM -20.2 °F -43.4 °F -29.2 °F 63% 30.57 in 10.0 mi NW 12.7 mph - N/A   Unknown
11:35 AM -18.4 °F -42.1 °F -27.4 °F 63% 30.57 in 10.0 mi NW 13.8 mph 20.7 mph N/A   Unknown
11:55 AM -18.4 °F -42.1 °F -27.4 °F 63% 30.56 in 10.0 mi NNW 13.8 mph 19.6 mph N/A   Unknown
12:15 PM -18.4 °F -43.7 °F -27.4 °F 63% 30.55 in 10.0 mi NW 16.1 mph 19.6 mph N/A   Unknown
12:35 PM -16.6 °F -42.1 °F -27.4 °F 58% 30.54 in 10.0 mi NW 17.3 mph 23.0 mph N/A   Unknown
12:55 PM -16.6 °F -41.4 °F -25.6 °F 64% 30.54 in 10.0 mi NW 16.1 mph - N/A   Unknown
1:15 PM -16.6 °F -40.6 °F -25.6 °F 64% 30.53 in 10.0 mi NW 15.0 mph - N/A   Unknown
1:35 PM -14.8 °F -39.1 °F -25.6 °F 58% 30.53 in 10.0 mi NW 16.1 mph - N/A   Unknown
1:55 PM -14.8 °F -39.1 °F -23.8 °F 64% 30.53 in 10.0 mi NW 16.1 mph - N/A   Unknown
2:15 PM -14.8 °F -39.8 °F -23.8 °F 64% 30.52 in 10.0 mi NNW 17.3 mph 23.0 mph N/A   Unknown
2:35 PM -14.8 °F -38.3 °F -23.8 °F 64% 30.52 in 10.0 mi NW 15.0 mph - N/A   Unknown
2:55 PM -13.0 °F -36.0 °F -22.0 °F 64% 30.51 in - NNW 15.0 mph - N/A   Unknown
3:15 PM -13.0 °F -36.0 °F -23.8 °F 59% 30.51 in 10.0 mi NNW 15.0 mph 20.7 mph N/A   Unknown
3:55 PM -13.0 °F -36.0 °F -22.0 °F 64% 30.52 in 10.0 mi NW 15.0 mph 18.4 mph N/A   Unknown
4:15 PM -13.0 °F -35.2 °F -23.8 °F 59% 30.52 in 10.0 mi NW 13.8 mph - N/A   Unknown
4:35 PM -13.0 °F -36.0 °F -23.8 °F 59% 30.52 in 10.0 mi NW 15.0 mph - N/A   Unknown
4:55 PM -13.0 °F -34.3 °F -25.6 °F 53% 30.52 in 10.0 mi NW 12.7 mph - N/A   Unknown
5:35 PM -13.0 °F -35.2 °F -25.6 °F 53% 30.51 in 10.0 mi NW 13.8 mph - N/A   Unknown
5:55 PM -13.0 °F -34.3 °F -25.6 °F 53% 30.51 in 10.0 mi WNW 12.7 mph - N/A   Unknown
6:15 PM -14.8 °F -34.6 °F -25.6 °F 58% 30.51 in - WNW 10.4 mph - N/A   Unknown
6:35 PM -16.6 °F -37.9 °F -23.8 °F 70% 30.51 in 10.0 mi West 11.5 mph - N/A   Unknown
6:55 PM -16.6 °F -36.8 °F -25.6 °F 64% 30.51 in 10.0 mi WNW 10.4 mph - N/A   Unknown
7:15 PM -16.6 °F -34.4 °F -25.6 °F 64% 30.51 in 10.0 mi West 8.1 mph - N/A   Unknown
7:35 PM -18.4 °F -37.9 °F -27.4 °F 63% 30.51 in - West 9.2 mph - N/A   Unknown
7:55 PM -18.4 °F -36.6 °F -25.6 °F 70% 30.51 in - WNW 8.1 mph - N/A   Unknown
8:15 PM -20.2 °F -38.8 °F -27.4 °F 69% 30.51 in 10.0 mi WNW 8.1 mph - N/A   Unknown
8:35 PM -20.2 °F -40.1 °F -27.4 °F 69% 30.51 in 10.0 mi WNW 9.2 mph - N/A   Unknown
8:55 PM -20.2 °F -40.1 °F -27.4 °F 69% 30.51 in 10.0 mi WNW 9.2 mph - N/A   Unknown
9:15 PM -20.2 °F -40.1 °F -27.4 °F 69% 30.51 in 10.0 mi WNW 9.2 mph - N/A   Unknown
9:35 PM -20.2 °F -40.1 °F -27.4 °F 69% 30.51 in 10.0 mi WNW 9.2 mph - N/A   Unknown
9:55 PM -20.2 °F -40.1 °F -27.4 °F 69% 30.52 in 10.0 mi WNW 9.2 mph - N/A   Unknown
10:15 PM -20.2 °F -38.8 °F -27.4 °F 69% 30.52 in 10.0 mi West 8.1 mph - N/A   Unknown
10:35 PM -20.2 °F -37.3 °F -29.2 °F 63% 30.52 in - West 6.9 mph - N/A   Unknown
10:55 PM -22.0 °F -42.3 °F -29.2 °F 69% 30.52 in - West 9.2 mph - N/A   Unknown
11:15 PM -22.0 °F -41.0 °F -29.2 °F 69% 30.51 in - WNW 8.1 mph - N/A   Unknown
11:35 PM -20.2 °F -41.3 °F -27.4 °F 69% 30.51 in 10.0 mi WNW 10.4 mph - N/A   Unknown
11:55 PM -20.2 °F -41.3 °F -27.4 °F 69% 30.51 in 10.0 mi WNW 10.4 mph - N/A   Unknown